EW7217 Weather Reports


time (UTC)temp
F
wind
direction
speed
knots
gust
knots
rain 1hr
in
rain 24hr
in
rain mn
in
humidity
%
barometer
mb
20260503224325 69 252 0.0 1.7 0.00 0.00 0.00 49 1039.3
20260503223326 70 319 0.0 1.7 0.00 0.00 0.00 49 1039.2
20260503222324 70 216 0.9 2.6 0.00 0.00 0.00 50 1039.2
20260503221326 70 283 0.9 2.6 0.00 0.00 0.00 50 1039.4
20260503220326 69 254 0.9 2.6 0.00 0.00 0.00 51 1039.5
20260503215424 69 270 0.0 1.7 0.00 0.00 0.00 50 1039.5
20260503215327 69 262 0.0 1.7 0.00 0.00 0.00 51 1039.5
20260503214424 69 10 0.9 3.5 0.00 0.00 0.00 53 1039.5
20260503213426 69 239 0.9 3.5 0.00 0.00 0.00 53 1039.5
20260503213325 69 273 1.7 4.3 0.00 0.00 0.00 52 1039.5
20260503212326 69 302 0.0 0.9 0.00 0.00 0.00 52 1039.5
20260503211326 69 222 0.9 2.6 0.00 0.00 0.00 52 1039.5
20260503211228 69 242 1.7 4.3 0.00 0.00 0.00 52 1039.5
20260503211125 69 259 0.9 2.6 0.00 0.00 0.00 52 1039.5
20260503210125 69 273 0.9 3.5 0.00 0.00 0.00 53 1039.6
20260503205125 69 283 0.0 1.7 0.00 0.00 0.00 53 1039.6
20260503203224 69 230 0.0 2.6 0.00 0.00 0.00 54 1039.7
20260503203125 69 242 1.7 5.2 0.00 0.00 0.00 53 1039.8
20260503202224 69 273 0.0 1.7 0.00 0.00 0.00 55 1039.8
20260503201226 68 194 0.0 0.9 0.00 0.00 0.00 53 1039.9
20260503201127 68 228 0.9 2.6 0.00 0.00 0.00 52 1039.9
20260503200126 69 324 0.0 2.6 0.00 0.00 0.00 52 1039.9
20260503195127 69 271 0.9 6.1 0.00 0.00 0.00 52 1040.0
20260503195025 69 275 0.9 3.5 0.00 0.00 0.00 51 1040.0
20260503192125 70 234 1.7 3.5 0.00 0.00 0.00 48 1039.9
20260503192025 70 314 1.7 4.3 0.00 0.00 0.00 47 1039.9
20260503191024 69 47 0.0 0.9 0.00 0.00 0.00 51 1040.1
20260503190925 69 271 0.9 5.2 0.00 0.00 0.00 51 1040.1
20260503190827 69 324 0.9 4.3 0.00 0.00 0.00 50 1040.0
20260503185924 68 333 0.0 3.5 0.00 0.00 0.00 51 1040.2
20260503184027 66 345 0.9 2.6 0.00 0.00 0.00 56 1040.3
20260503182125 64 235 0.0 0.9 0.00 0.00 0.00 60 1040.5
20260503181126 63 169 0.0 0.9 0.00 0.00 0.00 65 1040.6
20260503180126 62 269 0.0 1.7 0.00 0.00 0.00 65 1040.7
20260503175225 61 225 0.0 0.9 0.00 0.00 0.00 68 1040.8
20260503174225 60 300 0.0 0.9 0.00 0.00 0.00 69 1040.8
20260503172226 59 279 0.0 0.9 0.00 0.00 0.00 73 1040.7
20260503170325 59 23 0.0 0.9 0.00 0.00 0.00 73 1040.6
20260503170226 59 45 0.0 0.0 0.00 0.00 0.00 73 1040.6
20260503150627 56 270 0.0 0.0 0.00 0.00 0.00 85 1039.7
20260503130925 54 247 0.0 0.0 0.00 0.00 0.00 90 1038.8
20260503130827 54 247 0.0 0.0 0.00 0.00 0.00 90 1038.7
20260503110124 53 247 0.0 0.0 0.00 0.00 0.00 89 1038.3
20260503080827 55 247 0.0 0.0 0.00 0.00 0.00 87 1039.0
20260503072824 55 247 0.0 0.0 0.00 0.00 0.00 87 1039.0
20260503071825 55 247 0.0 0.0 0.00 0.00 0.00 86 1039.0
20260503070825 55 247 0.0 0.0 0.00 0.00 0.00 87 1038.8
20260503060111 54 247 0.0 0.0 0.00 0.00 0.00 90 1038.6
20260503055011 54 247 0.0 0.0 0.00 0.00 0.00 92 1038.4
20260503053013 53 247 0.0 0.0 0.00 0.00 0.00 93 1038.3
20260503052111 53 247 0.0 0.0 0.00 0.00 0.00 93 1038.2
20260503051110 52 247 0.0 0.0 0.00 0.00 0.00 92 1038.2
20260503050111 52 247 0.0 0.0 0.00 0.00 0.00 92 1038.2
20260503045112 53 247 0.0 0.0 0.00 0.00 0.00 91 1038.1
20260503045011 53 247 0.0 0.0 0.00 0.00 0.00 91 1038.1
20260503044011 53 247 0.0 0.0 0.00 0.00 0.00 90 1038.0
20260503043111 53 247 0.0 0.0 0.00 0.00 0.00 90 1037.9
20260503042112 54 247 0.0 0.0 0.00 0.00 0.00 90 1037.9
20260503042011 54 247 0.0 0.0 0.00 0.00 0.00 90 1037.9
20260503041111 54 247 0.0 0.9 0.00 0.00 0.00 90 1038.1
20260503040209 54 315 0.0 0.0 0.00 0.00 0.00 89 1037.9
20260503035112 54 315 0.0 0.0 0.00 0.00 0.00 88 1037.9
20260503034210 54 315 0.0 0.0 0.00 0.00 0.00 88 1037.8
20260503034111 54 315 0.0 0.0 0.00 0.00 0.00 88 1037.8
20260503034011 54 315 0.0 0.0 0.00 0.00 0.00 87 1037.9
20260503033012 55 270 0.0 0.9 0.00 0.00 0.00 87 1037.7
20260503032012 55 333 0.0 0.0 0.00 0.00 0.00 86 1037.9
20260503031011 55 202 0.0 0.0 0.00 0.00 0.00 84 1037.8
20260503030010 56 285 0.0 1.7 0.00 0.00 0.00 84 1037.7
20260503025014 56 275 0.0 2.6 0.00 0.00 0.00 82 1037.5
20260503024110 57 83 0.0 1.7 0.00 0.00 0.00 80 1037.4
20260503023112 58 245 0.0 0.9 0.00 0.00 0.00 77 1037.2
20260503023010 58 325 0.0 1.7 0.00 0.00 0.00 77 1037.2
20260503022011 59 194 0.0 0.9 0.00 0.00 0.00 74 1037.3
20260503021012 61 238 0.9 3.5 0.00 0.00 0.00 71 1037.3
20260503020013 62 14 0.0 0.0 0.00 0.00 0.00 68 1037.2
20260503015911 63 285 0.0 0.9 0.00 0.00 0.00 68 1037.3
20260503014911 64 224 0.0 2.6 0.00 0.00 0.00 67 1037.2
20260503013913 64 204 0.0 1.7 0.00 0.00 0.00 66 1037.3
20260503012911 65 248 0.0 1.7 0.00 0.00 0.00 65 1037.1
20260503011012 66 240 0.9 2.6 0.00 0.00 0.00 63 1037.2
20260503010111 66 225 0.9 1.7 0.00 0.00 0.00 62 1037.2
20260503010013 66 191 0.0 1.7 0.00 0.00 0.00 63 1037.2
20260503005111 66 215 0.0 1.7 0.00 0.00 0.00 62 1037.2
20260503003112 68 215 0.0 1.7 0.00 0.00 0.00 61 1037.3
20260503003013 68 157 0.0 0.9 0.00 0.00 0.00 61 1037.3
20260503002012 68 38 0.0 0.9 0.00 0.00 0.00 60 1037.4
20260503001012 68 127 0.0 0.9 0.00 0.00 0.00 60 1037.3
20260503000010 68 354 0.9 3.5 0.00 0.00 0.00 60 1037.2
20260502235909 68 200 0.0 3.5 0.00 0.00 0.00 60 1037.3
20260502234912 69 337 0.0 2.6 0.00 0.00 0.00 60 1037.4
20260502233911 69 99 0.0 0.9 0.00 0.00 0.00 60 1037.2
20260502232913 69 180 0.0 1.7 0.00 0.00 0.00 59 1037.3
20260502231911 69 220 0.0 1.7 0.00 0.00 0.00 58 1037.4
20260502231812 69 230 0.9 6.1 0.00 0.00 0.00 59 1037.5
20260502231710 69 208 0.9 2.6 0.00 0.00 0.00 59 1037.4
20260502230711 69 269 0.0 0.9 0.00 0.00 0.00 59 1037.8